User: anonymous   Login
Location: Unspecified
(0.0000°N, 0.0000°E)
Time: 16:25:29
(UTC+00:00)
Language:

ISAT - Orbit

View from above orbital plane
View from above orbital plane
View from above satellite
View from above satellite

Ground track
Ground track

The orbit data is extracted from the following two-line orbital elements,

1 43879U 18111D   24063.97347602  .00020793  00000-0  13679-2 0  9995
2 43879  97.6273 330.3808 0013980   6.6136 353.5274 15.07507950281532
Epoch (UTC): 03 March 2024 23:21:48
Eccentricity: 0.0013980
inclination: 97.6273°
perigee height: 534 km
apogee height: 553 km
right ascension of ascending node: 330.3808°
argument of perigee: 6.6136°
revolutions per day: 15.07507950
mean anomaly at epoch: 353.5274°
orbit number at epoch: 28153

The dashed part of the orbit path shows where the satellite is in the earth's shadow,  

DLR